Location: Unspecified
(48.7670°N, 0.0000°E)
Time: 17:42:22
(UTC+00:00)

Altair - Pass Details

Date: 25 June 2019
Orbit: 1501 x 1683 km, 47.2° (Epoch: 16 August)

Event Time Altitude Azimuth Distance (km) Brightness Sun altitude
Rises 23:47:23 0° 283° (WNW) 4,795 10.3 -17.8°
Reaches altitude 10° 23:50:28 10° 281° (W) 3,832 9.7 -17.8°
Maximum altitude 00:00:10 67° 202° (SSW) 1,765 7.5 -17.8°
Drops below altitude 10° 00:10:08 10° 123° (ESE) 3,934 9.3 -17.8°
Sets 00:13:20 0° 121° (ESE) 4,927 9.9 -17.8°
